Zurück zum Katalog

SL-16 DEB

AktivLEO
NORAD 18416·DEBRIS·🇷🇺 Russia

Gestartet Mar 18, 1987 von Baikonur Cosmodrome

Loading…

Nächste Überflüge (nächste 24 Stunden)

TLE

AktuellSource: Space-Track

Epoche: Sep 13, 2026, 22:36 UTC

1 18416U 87027C   26256.94231583  .00000013  00000-0  49901-4 0  9991
2 18416  71.0337  82.2613 0188285 326.8865 145.7624 13.77577537983916

Verfolge SL-16 DEB in Echtzeit mit AllMySat

Download on the App Store